Regional Weather Roundup
Issued by NWS

Home | Current Version | Previous Version | Text Only | Print | Product List | Glossary Off
Versions: 1 2 3 4 5 6 7 8 9 10 11 12 13 14 15 16 17 18 19 20 21 22 23 24 25 26 27 28 29 30 31 32 33 34 35 36 37 38 39 40 41 42 43 44 45 46 47 48 49 50

000
ASUS43 KDTX 242110
RWRMI
MICHIGAN HOURLY REGIONAL WEATHER ROUNDUP
NATIONAL WEATHER SERVICE DETROIT/PONTIAC MI
500 PM EDT THU APR 24 2014

NOTE: "FAIR" INDICATES FEW OR NO CLOUDS BELOW 12,000 FEET WITH NO
SIGNIFICANT WEATHER AND/OR OBSTRUCTION TO VISIBILITY.

MIZ047>049-052>055-059>063-066>070-074>076-081>083-242200-
SOUTHEAST LOWER MICHIGAN

CITY           SKY/WX    TMP DP  RH WIND       PRES   REMARKS
ADRIAN         PTSUNNY   53  20  27 E15       30.01F
ALMA           PTSUNNY   56  18  22 E14G20    29.99F
ANN ARBOR      PTSUNNY   52  15  23 SE14G21   30.03F
BAD AXE        PTSUNNY   50  15  25 SE8       30.07F
DETROIT CITY   MOSUNNY   55  17  22 SE14      30.05F
DETROIT        PTSUNNY   55  17  22 E12       30.05F
FLINT          PTSUNNY   57  18  21 SE14G22   30.01F
GROSSE ILE     PTSUNNY   52  12  20 E8        30.04F
HILLSDALE      CLOUDY    55  20  26 E12       29.98F
HOWELL         CLOUDY    55  19  24 SE13G20   30.00F

CITY           SKY/WX    TMP DP  RH WIND       PRES   REMARKS
JACKSON        PTSUNNY   52  19  27 SE15G23   29.99F
LAMBERTVILLE   PTSUNNY   50  27  40 E9G16     30.03F
LANSING        PTSUNNY   55  20  25 SE16      29.99F
LAPEER         NOT AVBL
MASON          PTSUNNY   53  19  27 SE8G21    29.99F
MONROE         PTSUNNY   52  18  25 E15       30.03F
MT. CLEMENS    PTSUNNY   53  18  25 SE13      30.04F
PONTIAC        PTSUNNY   54  16  22 SE13      30.02F
PORT HOPE        N/A     42  32  67 E8        30.08F
PORT HURON     MOSUNNY   52  25  35 NE10G16   30.05F
TRI CITIES     MOSUNNY   57  21  24 E14       30.01F
YPSILANTI      PTSUNNY   55  16  21 SE16      30.04F
$$
MIZ043>046-050>051-056>058-064>065-071>073-077>080-242200-
SOUTHWEST LOWER MICHIGAN

CITY           SKY/WX    TMP DP  RH WIND       PRES   REMARKS
BATTLE CREEK   CLOUDY    56  20  24 SE16G23   29.96F
BENTON HARBOR  CLOUDY    56  25  30 SE20G32   29.84F
BIG RAPIDS     CLOUDY    55  24  30 SE14G24   29.93F
COLDWATER      CLOUDY    55  17  22 SE13G23   29.96F
HOLLAND        CLOUDY    58  20  22 SE21G32   29.88F
GRAND RAPIDS   CLOUDY    58  23  26 SE18      29.94F
KALAMAZOO      CLOUDY    57  19  22 SE17G26   29.92F
MARSHALL       PTSUNNY   55  22  26 SE12G17   29.96F
MUSKEGON       CLOUDY    59  21  23 E23G32    29.86F
$$
MIZ016>042-242200-
NORTHERN LOWER MICHIGAN

CITY           SKY/WX    TMP DP  RH WIND       PRES   REMARKS
ALPENA         CLOUDY    43  27  53 E12       30.08F
BEAVER ISLAND  CLOUDY    47  26  44 NE8       30.00F
BELLAIRE       CLOUDY    56  18  23 SE12G18   29.97F
CADILLAC       CLOUDY    53  22  30 E17G26    29.94F
CHARLEVOIX     CLOUDY    54  19  25 E13       30.01F
FRANKFORT      CLOUDY    43  37  80 NE9       29.94F
GAYLORD        CLOUDY    51  17  26 SE14      29.99F
GRAYLING       CLOUDY    53  16  23 SE15G22   30.01F
HARBOR SPRINGS CLOUDY    55  20  26 SE6       29.99F
HOUGHTON LAKE  CLOUDY    51  18  27 SE8       30.00F
MANISTEE       CLOUDY    46  36  66 E9        29.92F
OSCODA         CLOUDY    42  30  61 E9        30.07F
PELLSTON       CLOUDY    52  21  29 E9        30.02F
TRAVERSE CITY  CLOUDY    52  24  33 VRB6      29.95F
$$
MIZ007>008-015-242200-
EASTERN UPPER MICHIGAN

CITY           SKY/WX    TMP DP  RH WIND       PRES   REMARKS
KINROSS        CLOUDY    48  18  29 SE15      30.04F
MACKINAC ISLAN CLOUDY    38  29  72 E10G16    30.04F
NEWBERRY       CLOUDY    46  23  40 E13       30.01F
S. S. MARIE    CLOUDY    49  19  30 SE12      30.04F
$$
MIZ004>006-011>014-085-242200-
CENTRAL UPPER MICHIGAN

CITY           SKY/WX    TMP DP  RH WIND       PRES   REMARKS
MANISTIQUE     CLOUDY    48  25  41 E12       29.98F
ESCANABA       CLOUDY    39  30  70 S6        29.98F
MENOMINEE      CLOUDY    37  34  87 E10       29.94S
SAWYER-GWINN   DRIZZLE   41  28  60 SE14G21   29.95F
$$
MIZ001>003-009>011-084-242200-
WESTERN UPPER MICHIGAN

CITY           SKY/WX    TMP DP  RH WIND       PRES   REMARKS
IRON MOUNTAIN  LGT RAIN  37  34  89 SE10G22   29.90F FOG
HOUGHTON       CLOUDY    36  26  67 E12       29.93F
COPPER HARBOR    N/A     43  23  45 S8        29.96F
$$

ABBREVIATIONS USED IN REMARKS
   TC - TEMPERATURE IN CELSIUS
  WCI - WIND CHILL INDEX
   HX - HEAT INDEX
  VSB - VISIBILITY




USA.gov is the U.S. government's official web portal to all federal, state and local government web resources and services.